Tracking 29892 objects as of 21-Nov-2024
HD Live streaming from Space Station
objects crossing your sky now

OBJECT B

Track OBJECT B now!
10-day predictions


NORAD ID: 56847
Int'l Code: 2023-081B
Perigee: 470.9 km
Apogee: 471.1 km
Inclination: 97.4 °
Period: 93.9 minutes
Semi major axis: 6841 km
RCS: Unknown
Launch date: June 7, 2023
Source: (TBD)
Launch site: Jiuquan Satellite Launch Center, China (JSC)
Your satellite tracking list
Your tracking list is empty




NASA's NSSDC Master Catalog

Two Line Element Set (TLE):
1 56847U 23081B   24326.10327484  .00051512  00000-0  15588-2 0  9993
2 56847  97.3590  35.9702 0000136  79.7185 280.4073 15.34016926 81042
Source of the keplerian elements: AFSPC